星链-30199 (STARLINK-30199 )

导读

STARLINK-30199是美国太空探索技术公司(SpaceX)星链星座的成员,于2023年7月10日发射,星链旨在构建全球卫星互联网星座,为全球提供高速互联网接入服务。该卫星入轨后展开太阳能帆板,进入近地轨道运行,助力星座服务覆盖范围的扩展,是星链组网进程中批量发射卫星中的一颗。

基本信息
目录编号:
57299
目录名称:
STARLINK-30199
国际标识:
2023-096K
轨道中心:
EARTH
卫星名称:
星链-30199
卫星全名:
星链-30199 (STARLINK-30199 )
卫星状态:
已陨落 最后检测时间 2025-08-10
发射日期:
2023-07-10 UTC
国别 :
美国 (US)
星等 :
--
该卫星已列入 空间交会检测服务 Space Conjunction Data Service (SCDS) ,当前飞行风险评估等级: 无高风险
轨道信息
数据来源 国际轨道数据
星历时间: 2025-08-10T18:29:06+0800
轨道信息已过期397天
半长轴: 6571.178km
偏心率: 0.0004681
轨道倾角: 42.967°
近地点辐角 116.230°
升交点赤经 233.418°
平近点角 36.218°
近地点: 189.967km
远地点: 196.119km
周期: 88.354分钟
每日圈数: 16.298137
详细信息
固有亮度:
5
最大亮度:
0.3
卫星平台:
Starlink v2.0 mini
覆盖范围:
全球
运营商:
太空探索技术公司
运营商所在国:
美国
制造商(研发单位):
太空探索技术公司
制造商所在国:
美国
使用方式:
暂无
卫星简介
星链(Starlink)计划是由太空探索技术公司(SpaceX)提出的一个巨型低轨卫星互联网星座项目,计划在2019年至2024年间在太空搭建由约1.2万颗卫星组成的“星链”网络,其中1584颗将部署在地球上空550千米处的近地轨道,并从2020年开始工作。该卫星仍在工作。
与全量物体交会距离演化趋势
与全量物体交会风险概率演化趋势